Weather in Lesnoe

Russia / Tver Oblast     58°17′08″N   35°31′34″E
temp.,
°C
wind,
m/s
gust,
m/s
humid.,
%
clouds,
%
prec.,
mm/h
press.,
hPa
HPBL,
m
15 may, sat
sat1500:00+11ese22945 0.0 101227
03:00+10e2396100 0.0 101151
06:00+12e289277 0.0 1009272
09:00+17e3682100 0.8 1007648
12:00+21sse456310 0.0 10061147
15:00+22s45616 1.6 10051386
18:00+19sw37761 2.1 1004616
21:00+14ssw278826 3.1 1004121
16 may, sun
sun1600:00+12ssw3109610 0.0 1005260
03:00+11s389819 0.0 1005238
06:00+11ssw399639 0.0 1006375
09:00+16ssw477748 0.0 1007774
12:00+16sw478357 0.8 1008812
15:00+19wsw475994 1.3 10091441
18:00+18wsw366135 0.0 10101281
21:00+14sw11845 0.0 101111
17 may, mon
mon1700:00+11wsw11930 0.0 101310
03:00+10sse019411 0.0 101410
06:00+12se12877 0.0 101464
09:00+18sse2467100 0.0 1015539
12:00+21se3453100 0.0 10141343
15:00+23sse3547100 0.0 10131814
18:00+22se475653 0.0 10121373
21:00+16ese3138799 0.3 1011359
18 may, tue
tue1800:00+16ese4149298 0.3 1010440
03:00+15ese31297100 0.3 1008336
06:00+16ese41490100 0.0 1007434
09:00+21se5136597 0.0 1005647
12:00+25sse61348100 0.0 10051483
15:00+26sse6114772 0.0 10042055
18:00+21sse6137795 2.3 10041050
21:00+18sse61485100 7.4 1004935
19 may, wed
wed1900:00+16sse41389100 0.6 1004548
03:00+13sse269891 0.6 1005176
06:00+14sse239664 0.0 1004142
09:00+17se358088 0.0 1003671
12:00+20sse4763100 0.3 10011425
15:00+18s5986100 2.5 1001829
18:00+16s4885100 0.9 1001862
21:00+11wsw51193100 1.3 1002817